Location: Brabourne
(51.1333°N, 1.0000°E)
Time: 22:56:08
(UTC+00:00)

Cosmos 2026 Rocket - Pass Details

Date: 20 June 2021
Orbit: 939 x 1001 km, 82.9° (Epoch: 02 August)

Event Time Altitude Azimuth Distance (km) Brightness Sun altitude
Exits shadow 02:15:55 11° 197° (SSW) 2,685 5.7 -9.5°
Maximum altitude 02:22:04 72° 282° (WNW) 1,044 4.1 -8.9°
Drops below altitude 10° 02:28:27 10° 7° (N) 2,779 7.5 -8.4°
Sets 02:31:01 0° 10° (N) 3,737 8.4 -8.2°
